GFSSGP_850_spd_273.txt.gz
Wind_Speed
15 16 9 11 3 5 5 6 7 10 8 20 27 19 16 13 5 4 21 17 18 23 23 21 19 19 18 18 17 17 17 18 18 18 19 18 18 18 18 18 18 18 18 18 18 18 18 19 18
19 12 4 6 3 2 5 6 4 13 31 22 29 28 22 14 22 24 24 21 17 21 23 22 19 18 17 17 16 16 16 17 17 17 17 17 17 17 16 16 16 16 16 15 15 15 16 17 19
15 14 3 3 3 3 4 3 18 27 44 31 14 24 13 14 26 17 20 21 18 22 22 21 19 18 17 16 15 15 15 15 15 15 15 15 15 15 14 14 14 14 13 13 13 13 13 14 15
12 2 6 1 10 11 8 14 28 21 36 45 35 10 21 24 19 22 25 18 19 22 22 20 18 17 17 16 16 15 14 14 14 13 13 13 13 12 12 12 11 11 11 10 10 10 9 9 10
15 6 1 2 11 11 5 31 24 12 16 36 28 17 14 17 24 26 18 14 24 23 21 20 18 16 16 15 15 14 14 13 12 12 11 11 11 10 9 8 8 8 7 7 6 5 5 5 5
7 5 4 5 10 7 15 41 36 29 35 31 18 28 10 17 25 20 12 14 16 20 20 20 18 16 15 14 14 14 13 12 11 10 10 9 8 8 7 6 5 5 4 3 3 2 2 3 4
6 1 6 10 13 8 11 28 20 22 34 22 32 4 9 17 20 18 22 17 14 12 15 18 18 16 15 14 13 12 12 11 10 9 8 8 7 6 5 4 3 3 2 2 3 4 3 3 2
18 1 8 7 11 6 11 13 49 38 6 34 25 7 6 20 22 21 25 22 16 9 11 16 18 17 15 14 13 12 11 10 9 9 8 7 6 5 4 4 3 1 0 1 3 4 4 3 3
19 2 6 12 9 7 12 12 12 17 30 12 20 14 12 25 25 27 28 24 17 15 10 15 17 17 16 14 13 12 11 10 9 9 8 7 5 4 2 3 3 3 3 3 2 2 4 3 3
6 2 9 11 8 7 14 16 27 15 19 12 19 18 16 27 27 31 36 31 25 20 16 10 15 16 14 13 11 9 8 9 8 8 8 7 6 7 1 3 6 7 9 7 5 2 2 4 4
17 11 10 21 13 10 12 13 8 34 8 27 29 27 26 29 31 34 33 33 25 20 19 13 12 11 8 13 10 4 5 8 8 8 9 8 6 7 3 8 12 8 7 11 6 8 7 7 8
9 24 22 25 10 7 9 18 7 21 24 21 30 34 31 29 30 33 31 28 21 24 21 18 10 13 7 8 9 4 1 8 3 4 6 8 12 8 6 11 13 10 13 11 9 8 10 10 10
8 19 28 26 20 2 1 12 3 6 22 23 26 30 29 30 20 12 19 16 46 34 26 20 14 15 17 17 14 7 3 4 2 4 4 4 9 13 12 12 16 15 12 11 14 16 16 17 16
27 26 25 20 19 9 4 15 6 7 14 7 14 17 18 17 14 10 30 33 35 28 25 20 17 21 23 14 15 10 7 6 7 8 9 10 9 12 16 17 16 20 14 15 14 15 15 14 13
25 8 7 12 9 7 15 7 7 17 14 14 11 7 14 7 7 16 22 25 26 23 16 15 16 20 20 21 19 20 16 9 14 11 12 12 13 14 14 18 19 16 17 18 21 20 20 20 18
9 4 4 9 9 13 8 8 8 15 17 13 13 18 18 23 28 21 17 15 15 17 17 12 11 12 14 14 26 23 23 24 20 15 18 19 18 19 17 20 19 17 17 17 18 20 21 22 20
6 5 8 11 20 8 8 7 10 21 21 18 24 24 20 19 21 22 19 17 14 15 14 16 5 9 15 14 13 29 21 17 17 15 15 18 20 18 18 18 22 17 13 17 20 22 24 25 24
9 7 8 13 16 18 9 9 6 17 17 19 25 30 23 15 12 14 15 15 16 14 15 20 13 6 10 12 9 12 12 14 14 13 16 17 17 19 20 15 13 15 17 20 20 21 23 24 23
11 11 10 14 8 10 10 9 9 23 26 20 23 31 25 17 10 9 11 14 16 16 15 13 18 10 10 12 11 11 13 14 16 16 17 15 14 14 15 13 16 17 19 20 22 25 25 25 25
16 14 14 8 5 6 10 9 9 10 13 28 30 33 29 21 14 8 11 13 14 16 15 13 15 18 16 15 13 9 11 15 15 18 18 15 18 17 16 15 19 20 20 18 19 21 24 24 22
12 8 5 6 10 4 6 5 7 7 22 22 31 34 29 26 18 12 9 11 14 15 17 15 14 16 17 19 19 12 11 10 11 10 12 12 11 10 13 16 19 19 20 18 15 16 19 21 21
8 10 3 9 8 5 1 5 7 9 10 9 25 33 29 24 18 18 12 11 11 9 10 13 16 18 13 12 14 16 14 12 7 4 4 5 9 12 9 9 11 13 14 16 18 17 17 18 21
9 7 7 7 7 6 15 1 8 9 12 14 22 32 34 27 23 22 19 20 17 12 14 13 11 9 11 7 8 7 8 4 3 0 4 5 3 4 7 8 8 9 10 11 12 14 14 16 21
11 7 7 7 4 11 8 10 14 6 9 17 23 31 38 35 30 30 28 25 19 19 17 16 14 14 11 8 7 6 7 8 11 12 13 8 8 11 11 11 11 11 12 13 14 13 12 11 13
5 3 3 5 3 10 7 7 12 12 17 16 25 36 40 39 36 37 34 27 22 21 21 18 15 14 11 10 12 13 13 13 15 14 13 8 6 10 12 12 13 13 13 14 14 14 12 11 12
9 8 6 10 6 13 9 17 18 16 24 21 42 40 40 41 37 37 30 31 23 19 19 18 15 14 12 12 12 12 11 12 9 8 6 3 6 9 11 13 15 16 16 15 14 13 12 10 10
11 12 10 12 7 7 9 10 9 2 9 22 32 35 36 37 39 35 34 30 24 25 17 13 12 11 11 12 14 15 9 7 8 7 4 4 4 5 8 11 14 15 16 16 18 15 13 12 12
10 10 6 1 7 9 8 9 7 6 12 15 17 27 31 33 36 34 34 29 28 23 18 16 10 10 10 12 15 14 9 6 9 7 6 3 3 6 10 13 17 19 18 15 17 19 15 10 13
11 4 5 5 6 7 13 11 5 5 18 23 20 27 32 34 38 37 35 32 27 24 21 16 14 14 11 14 11 11 9 7 6 4 2 1 4 9 13 18 20 20 17 15 17 17 15 14 16
8 5 11 11 10 3 1 7 1 12 16 25 24 32 33 23 32 35 34 31 27 22 19 15 19 15 17 18 12 11 6 5 5 5 5 5 9 12 17 20 22 19 16 16 16 17 18 17 19

GFSSGP_850_spd_276.txt.gz
Wind_Speed
16 16 17 8 3 4 4 4 3 6 18 27 23 11 6 6 2 3 26 22 28 27 27 23 19 18 18 18 17 17 18 18 18 19 18 18 17 17 17 17 17 17 18 18 18 18 18 16 15
13 16 10 1 4 4 6 8 15 10 5 21 23 14 14 5 8 19 34 20 27 25 26 24 21 19 18 18 18 17 17 17 17 17 17 17 16 15 15 15 15 15 15 16 16 17 16 15 14
13 14 3 3 3 3 5 15 14 27 30 20 10 17 7 5 19 27 23 32 28 24 25 24 22 20 19 19 17 17 16 16 15 15 15 15 14 14 14 14 13 13 13 13 13 14 14 12 11
12 4 2 3 5 6 5 8 25 24 26 24 16 7 6 3 17 17 30 26 25 23 24 23 20 19 19 18 18 17 16 15 14 14 14 13 12 12 12 12 11 11 10 10 10 9 10 9 8
12 2 3 1 6 6 2 11 5 13 8 15 25 4 4 5 11 22 23 25 24 24 23 22 20 18 18 17 17 16 15 14 13 12 12 11 10 10 10 9 8 8 7 7 6 5 5 5 5
3 2 4 3 5 1 6 12 22 15 17 14 13 8 6 12 16 20 18 21 22 23 24 23 21 19 17 16 16 15 14 13 12 11 10 9 9 8 7 7 6 6 6 5 4 4 4 4 3
3 3 4 3 4 2 4 4 7 12 11 9 14 6 16 22 17 16 13 21 20 18 21 22 22 20 17 16 15 14 13 11 10 9 9 8 7 6 6 5 4 4 4 4 5 4 5 4 3
2 4 3 2 4 6 6 2 13 15 7 15 9 5 10 25 24 16 18 20 17 14 15 17 19 19 18 17 15 14 12 11 10 9 8 7 6 5 4 3 2 2 3 3 4 4 5 6 6
4 3 2 3 4 3 14 6 2 3 16 11 9 7 30 29 28 25 25 24 20 16 16 17 17 18 17 16 15 13 12 11 10 9 8 8 7 6 4 3 1 0 2 2 2 2 4 3 2
3 4 5 6 3 3 15 4 13 8 10 6 14 12 34 36 32 30 30 28 25 20 19 19 18 16 16 15 13 11 10 10 9 9 9 9 8 7 5 5 2 2 3 4 2 2 3 3 2
3 5 5 19 19 23 18 14 12 11 4 19 26 24 34 39 35 34 33 30 26 19 15 16 19 15 13 14 13 10 8 10 10 10 10 10 10 10 10 7 3 1 2 5 1 3 5 6 6
4 8 13 23 19 12 3 20 10 16 18 31 29 26 34 39 39 32 36 35 26 24 19 17 18 17 11 14 14 8 4 10 9 9 10 11 12 11 11 10 5 4 5 9 8 7 9 11 11
5 13 21 27 24 16 7 7 12 24 16 27 29 31 35 36 38 26 35 35 25 27 26 22 19 18 15 14 12 10 6 7 7 4 6 6 7 12 12 10 9 9 10 11 9 10 12 14 13
14 17 24 30 30 8 6 4 4 22 19 26 32 34 35 36 33 24 35 37 27 25 29 27 23 21 16 11 13 12 9 8 9 8 7 6 6 6 13 12 12 11 13 15 15 15 15 13 13
12 6 9 10 8 6 8 4 5 11 23 28 30 24 15 20 20 32 40 45 30 32 30 29 26 23 18 13 15 17 13 11 11 11 11 9 8 9 9 13 18 18 18 17 15 15 17 16 15
5 1 4 8 3 5 7 10 10 15 19 24 23 29 28 34 28 19 28 28 29 26 28 31 31 25 21 18 17 17 19 13 10 10 12 13 12 16 12 15 15 18 21 20 19 19 18 20 21
5 5 7 9 6 4 6 11 11 15 26 25 31 35 36 34 31 32 31 26 23 28 30 32 33 29 27 19 18 19 18 16 13 13 15 13 18 15 14 19 18 18 21 22 19 18 20 22 24
4 4 5 7 6 5 7 12 6 17 30 30 30 34 36 36 31 30 31 28 28 32 32 30 33 31 28 24 16 10 21 21 21 20 19 15 18 15 20 19 20 15 18 19 21 20 21 21 24
4 5 10 15 12 5 15 19 11 22 27 28 28 35 36 34 29 27 26 25 26 25 22 19 18 20 20 20 15 12 11 16 17 18 19 16 14 15 16 20 20 19 20 18 21 22 21 22 24
7 9 16 16 8 6 4 16 9 9 16 37 34 32 37 33 30 28 26 24 22 20 19 19 18 16 16 18 16 18 17 17 16 18 17 13 13 17 20 21 20 17 19 19 21 21 21 19 18
11 7 15 16 6 3 3 8 1 8 12 27 33 42 38 37 35 30 27 24 23 20 20 20 21 19 16 15 21 18 18 16 13 13 13 11 12 10 9 9 11 16 18 18 17 16 17 16 15
10 11 15 9 0 4 5 4 5 5 10 16 27 32 40 36 31 27 24 24 22 20 21 21 20 17 15 17 17 18 17 15 11 8 8 6 6 11 13 14 13 13 15 14 14 13 14 15 16
13 17 13 9 4 2 1 4 8 4 8 8 19 34 42 40 36 30 25 23 20 19 17 16 18 19 19 18 15 18 17 13 10 8 7 7 2 2 4 5 5 7 8 9 10 11 11 11 10
11 6 5 3 2 8 7 7 8 5 8 6 16 24 30 36 31 27 26 25 22 18 17 16 15 14 13 12 11 11 11 12 12 9 7 7 7 8 8 9 9 10 10 11 12 12 11 10 9
6 5 4 4 3 8 6 6 9 6 10 10 19 30 39 40 38 36 34 29 23 23 22 20 17 17 15 14 12 11 10 11 10 9 7 7 8 9 10 10 10 11 12 13 13 13 12 11 9
8 8 5 9 5 10 6 6 10 11 19 23 30 45 37 35 38 39 36 31 28 27 25 22 18 18 16 14 13 13 12 11 11 8 4 5 6 8 9 10 12 13 15 17 16 15 14 13 12
9 5 8 9 2 1 5 8 6 4 7 18 19 36 37 36 42 44 36 30 29 27 24 21 18 16 15 13 12 13 12 10 8 8 6 4 4 4 5 9 13 15 17 18 18 15 14 13 13
8 5 7 1 4 11 4 6 7 7 6 3 12 28 33 35 40 42 36 31 28 25 23 18 14 12 14 14 14 13 10 9 10 8 7 6 3 2 6 10 14 17 18 17 17 17 16 15 15
4 3 3 3 5 11 16 8 7 11 11 15 17 34 40 45 47 45 38 33 30 29 22 20 15 15 15 15 15 12 10 12 11 9 6 3 2 5 8 12 16 19 16 16 17 17 18 16 16
8 9 6 3 7 2 3 5 1 9 6 4 13 24 37 47 49 43 41 39 37 32 26 17 15 17 16 17 14 12 12 7 6 6 4 5 6 9 12 15 19 19 17 17 17 18 18 18 18

GFSSGP_850_spd_279.txt.gz
Wind_Speed
16 17 13 5 3 5 3 4 3 2 6 6 11 4 3 5 2 4 18 26 24 26 26 23 19 16 16 16 16 16 16 16 16 15 15 15 15 16 16 16 17 17 16 16 16 15 15 13 12
15 14 3 5 4 4 4 3 5 8 12 22 15 6 5 3 2 13 26 25 27 27 26 24 20 17 16 16 16 16 16 16 15 15 15 15 15 14 14 15 15 15 15 15 14 13 12 11 10
13 11 1 4 3 4 5 5 9 9 16 18 12 8 3 4 10 28 21 25 28 27 25 23 20 18 18 17 16 15 15 15 14 14 14 13 13 13 13 12 12 12 13 13 12 11 10 9 7
12 3 4 4 3 4 8 10 16 8 7 4 21 9 6 3 20 20 19 28 28 26 25 23 20 19 18 17 16 15 14 14 13 13 12 12 12 12 11 11 11 11 11 11 10 9 7 5 4
8 3 4 2 3 2 2 24 12 5 5 6 4 4 5 15 8 16 24 27 27 27 25 23 21 19 18 17 15 14 13 12 12 11 11 11 11 11 10 10 9 9 9 9 7 6 4 3 2
3 3 4 3 4 4 2 2 3 6 8 7 13 9 3 11 15 22 23 24 25 26 25 23 21 19 18 16 15 13 12 11 10 10 9 9 9 9 9 8 8 8 8 7 6 5 4 3 2
4 4 1 3 6 5 2 8 4 5 3 4 8 5 7 18 20 18 20 22 21 22 23 23 22 20 18 16 15 13 12 11 10 9 8 7 7 7 7 7 7 7 7 7 6 6 5 4 2
1 4 0 1 3 4 4 3 6 3 2 7 7 6 8 27 22 17 19 21 21 21 21 21 20 20 18 17 15 13 12 11 10 8 8 7 6 6 5 5 5 5 6 5 5 5 5 4 3
3 4 1 3 1 2 1 2 7 5 3 4 4 8 18 29 26 23 23 25 26 24 23 22 20 19 17 16 15 14 12 11 10 9 8 7 6 5 5 4 4 4 4 2 1 3 2 0 2
4 4 8 5 4 1 10 7 6 2 3 2 8 10 25 33 28 28 28 27 26 24 24 23 21 19 17 15 14 13 13 12 10 9 8 7 7 6 6 6 5 2 1 2 2 3 5 6 4
3 5 5 8 11 6 12 6 7 3 4 17 26 26 30 32 31 28 27 24 23 21 21 20 21 20 17 15 14 13 11 11 10 10 9 8 8 8 8 6 4 3 2 2 3 5 6 9 9
2 8 7 7 2 2 3 10 7 17 10 14 20 33 35 34 34 31 30 29 28 26 22 18 20 20 18 17 15 12 8 10 10 9 9 9 9 10 9 8 7 5 4 5 5 7 10 11 13
5 6 11 13 18 12 12 17 11 20 16 13 18 33 36 37 34 33 32 30 29 28 24 21 20 18 18 18 17 14 8 6 7 6 6 6 6 7 11 9 9 9 9 9 9 11 12 13 14
3 7 15 10 21 13 12 12 6 23 20 15 23 28 30 36 36 33 34 35 35 31 26 24 23 18 18 18 18 13 9 6 7 5 4 4 4 5 7 10 11 12 13 12 14 15 15 16 16
4 5 6 4 8 5 10 4 10 12 24 20 22 25 24 31 36 37 35 33 36 33 29 27 24 20 17 17 16 15 10 8 8 8 8 8 9 8 8 11 13 14 16 17 17 15 15 15 15
5 3 3 6 3 4 6 9 10 10 21 23 25 25 25 30 31 37 35 35 35 36 28 28 28 25 21 21 17 17 14 14 11 11 12 12 14 14 13 13 16 17 18 19 22 22 22 20 19
7 3 2 8 5 4 3 7 8 9 21 27 25 28 28 29 32 35 37 41 40 37 29 30 32 27 22 22 18 16 14 19 17 15 13 12 14 15 16 19 19 20 21 21 23 24 20 19 21
3 2 3 4 5 1 5 10 8 9 24 28 30 29 31 31 30 31 31 33 33 37 32 29 32 29 26 21 17 17 16 15 16 16 17 17 17 17 21 20 21 23 19 17 18 21 24 23 24
3 3 5 6 3 3 9 12 17 12 21 18 26 31 34 34 30 27 29 32 35 38 35 30 29 27 30 26 22 20 18 19 22 23 21 18 18 19 22 18 19 18 20 23 23 17 18 17 21
5 4 11 8 5 5 12 12 15 9 21 35 31 29 37 39 34 33 32 32 32 33 31 31 32 30 30 26 24 25 20 19 20 20 21 18 17 17 16 15 16 15 11 17 22 17 20 17 17
6 5 8 9 10 6 6 8 5 3 6 25 31 42 45 48 43 38 35 34 32 31 30 29 27 26 29 29 29 25 22 20 16 16 13 13 12 11 8 11 10 16 17 15 14 16 16 15 14
6 8 12 10 1 6 3 6 6 3 6 8 18 28 41 43 42 42 39 35 32 31 28 22 21 22 22 21 20 20 21 18 13 10 8 7 7 9 11 11 12 9 7 9 11 12 12 12 11
10 5 8 11 6 2 4 3 8 2 3 8 16 28 36 37 40 44 41 37 33 31 28 24 22 21 20 20 15 15 16 17 15 11 8 5 4 2 3 3 5 5 7 9 10 9 10 9 8
5 4 1 3 3 4 8 7 6 5 7 6 12 26 31 40 38 38 35 33 33 31 28 25 22 20 19 18 19 17 18 16 14 12 8 8 9 10 9 8 7 8 9 10 11 10 10 9 8
5 5 4 5 2 7 6 4 8 7 9 10 13 33 42 41 40 36 36 35 33 30 27 24 21 19 17 15 15 15 14 14 12 11 9 9 9 10 9 8 8 9 11 13 13 12 12 12 12
7 9 6 6 4 9 3 7 7 12 19 16 23 29 36 41 43 42 41 36 33 31 28 25 23 21 19 16 15 14 13 13 13 11 9 10 9 9 8 7 9 11 14 15 14 13 14 14 13
4 4 7 4 4 2 5 8 6 6 9 10 17 24 36 45 47 48 42 36 34 31 29 27 26 22 20 17 15 14 14 13 13 12 12 11 8 5 4 4 7 11 15 16 15 14 13 14 14
8 5 6 1 4 8 5 6 6 7 11 9 6 21 27 30 34 42 42 37 33 30 28 27 24 21 20 18 16 17 17 14 14 14 12 10 6 3 1 5 8 12 15 14 15 15 15 14 14
5 3 2 3 5 9 11 8 6 8 9 10 8 22 36 42 45 47 43 36 33 30 29 26 24 23 19 21 20 19 17 17 17 13 12 9 6 4 5 6 9 14 15 15 15 16 16 16 16
5 9 7 3 7 3 2 8 4 4 3 6 10 17 21 24 27 35 36 32 31 30 28 25 23 22 25 23 22 20 17 17 15 14 12 9 6 6 8 9 11 15 18 17 17 17 17 16 17

GFSSGP_850_spd_282.txt.gz
Wind_Speed
12 9 4 3 4 5 3 6 4 4 1 1 22 11 9 5 4 4 10 23 20 23 23 20 15 12 12 12 13 14 14 14 14 14 14 14 15 16 16 16 16 16 15 15 14 13 13 14 14
14 8 2 2 4 3 4 4 7 4 5 15 15 9 4 3 4 7 24 23 24 23 22 20 17 14 13 13 13 14 14 14 14 14 14 14 15 15 15 15 14 14 14 13 13 12 11 11 12
11 3 1 4 3 4 5 6 6 5 10 4 5 5 3 1 7 22 24 22 26 25 23 21 18 16 14 13 14 14 14 14 14 13 13 13 14 14 14 13 13 12 12 12 11 10 8 8 8
7 2 4 4 2 4 4 5 4 3 9 11 6 4 6 4 20 14 21 22 25 25 23 20 18 16 14 13 13 13 13 13 13 12 13 13 13 13 12 12 12 11 10 9 8 7 6 5 5
5 3 4 3 4 5 3 3 11 3 4 2 1 3 5 15 11 15 17 23 25 26 23 21 19 17 15 13 13 12 12 12 11 11 11 12 12 12 11 11 11 10 9 8 6 4 3 3 4
2 3 4 1 4 4 5 8 1 3 2 1 5 3 3 11 10 15 18 22 23 24 24 21 19 16 15 13 13 12 11 11 10 10 10 10 10 11 10 10 10 9 8 7 6 4 2 2 2
5 4 2 3 4 2 3 4 2 2 1 2 3 3 4 12 14 17 19 21 22 23 22 20 19 18 16 15 13 12 11 10 9 9 9 9 9 9 9 9 9 8 8 8 6 5 2 1 2
3 4 1 2 3 3 3 2 2 4 2 4 6 6 7 22 23 22 21 20 22 22 21 20 19 18 17 15 14 12 11 10 9 8 8 7 7 7 7 7 7 7 6 6 5 3 2 1 2
4 4 1 3 4 4 4 4 4 3 3 1 3 7 18 26 28 26 24 23 24 23 22 21 20 19 17 15 14 13 12 11 10 8 7 6 6 6 6 5 6 5 5 4 4 3 1 2 4
5 4 7 3 3 4 4 7 5 1 1 6 6 13 26 28 25 25 29 26 26 24 23 21 21 20 18 17 15 13 12 11 9 8 7 6 6 6 6 6 6 5 3 2 2 4 6 6 7
5 6 5 3 6 5 3 3 4 5 5 15 16 22 33 29 28 26 25 26 23 22 22 22 21 20 19 17 16 14 12 11 9 8 8 7 7 7 6 5 5 5 4 2 2 4 5 7 9
4 7 5 1 2 4 2 2 5 12 8 11 12 23 33 31 30 29 26 26 25 23 20 21 22 19 18 16 15 13 12 10 9 8 7 8 7 8 8 8 6 6 6 6 5 7 8 9 11
3 4 5 7 10 12 9 13 7 14 19 2 16 23 34 32 30 29 28 25 25 24 20 19 20 20 17 15 14 13 10 7 7 7 8 7 6 5 8 7 7 7 7 9 10 10 12 14 15
4 4 8 6 8 7 8 2 11 21 22 18 17 24 31 35 33 31 30 29 29 26 23 20 19 17 18 16 15 14 11 6 7 6 5 4 4 5 5 6 8 9 11 10 11 13 15 16 18
2 4 5 4 4 5 8 1 8 24 13 19 22 27 29 32 33 34 29 31 31 28 24 24 22 19 21 17 15 16 12 9 8 8 7 8 8 9 10 11 12 13 12 12 14 16 18 19 20
1 4 1 5 1 3 11 7 13 26 13 22 19 29 31 32 35 34 34 33 32 31 30 26 25 25 22 17 16 17 15 15 14 13 14 15 14 15 17 17 16 16 14 15 16 20 21 22 22
7 2 3 6 3 1 4 6 3 9 15 25 24 30 35 35 37 38 37 36 35 33 32 32 29 29 25 20 16 17 17 17 18 17 15 16 13 15 17 17 19 19 17 20 21 20 19 20 21
3 1 3 4 3 2 3 8 9 17 16 25 31 31 33 36 39 40 39 38 39 37 34 35 32 31 27 23 21 22 20 21 23 17 17 15 15 17 19 22 20 17 17 20 19 15 17 18 19
2 3 6 4 6 4 8 6 12 15 17 18 31 36 37 36 37 37 38 39 39 39 37 35 35 31 28 27 26 26 24 20 13 16 17 19 19 18 20 17 12 15 15 13 18 17 17 17 19
2 3 7 5 4 6 9 11 15 7 12 30 33 36 41 41 40 38 37 36 38 37 33 32 32 27 30 29 28 27 22 19 17 17 17 17 15 15 15 10 10 11 14 12 19 17 12 13 13
2 4 4 8 4 4 5 7 8 2 6 15 21 31 39 47 45 42 36 35 37 35 33 32 30 29 30 31 31 27 24 21 18 16 14 14 11 8 9 8 9 11 12 10 10 8 8 8 9
4 7 9 7 3 3 3 5 6 5 6 6 14 22 34 40 39 38 33 32 32 32 30 31 31 30 31 30 30 27 27 25 19 12 10 9 7 7 8 9 6 3 3 3 4 6 6 7 7
9 6 7 5 4 1 2 1 7 1 5 7 12 28 33 38 40 39 38 36 31 30 31 30 28 28 28 29 29 28 24 21 17 11 11 10 9 7 8 3 2 2 4 5 5 5 6 7 7
4 1 4 5 3 2 7 8 5 5 7 4 9 29 36 38 40 38 38 34 34 33 32 31 29 29 27 26 24 23 22 22 20 17 16 12 10 11 9 7 5 4 5 5 6 7 6 6 6
3 5 4 4 3 7 5 2 7 6 9 9 9 28 38 44 46 43 42 40 38 37 34 33 29 30 29 26 23 20 17 19 17 17 14 16 16 13 10 8 6 4 5 7 8 8 8 8 7
6 9 5 6 4 7 4 6 6 11 20 19 21 22 26 36 48 52 49 47 42 37 32 29 28 27 27 25 21 19 18 18 17 16 17 17 15 13 11 7 3 4 7 9 9 9 10 10 9
2 5 7 4 1 1 5 7 7 8 10 13 21 19 24 30 39 50 54 48 43 34 29 26 25 26 25 21 21 21 20 21 20 20 18 18 17 14 9 3 2 5 8 9 10 9 8 8 9
4 3 3 1 4 9 5 5 6 3 10 10 8 19 27 30 33 36 35 39 35 30 26 24 22 23 21 20 19 19 19 18 19 19 20 18 16 11 7 3 1 4 8 11 12 12 12 11 11
9 6 6 4 4 7 12 7 7 9 7 9 10 17 22 25 23 26 31 31 32 29 26 24 21 20 19 16 20 21 21 18 18 20 19 17 12 8 5 3 3 6 9 11 13 14 13 14 14
4 4 5 4 8 4 3 6 5 9 13 21 23 18 15 20 25 30 32 35 35 32 28 24 21 19 16 18 19 21 19 21 22 21 19 15 11 8 6 5 5 7 10 14 15 15 15 17 17

GFSSGP_850_spd_285.txt.gz
Wind_Speed
12 10 5 4 2 2 0 2 2 0 3 2 12 4 5 4 0 1 13 22 24 23 21 18 15 12 11 11 12 12 13 13 14 14 15 15 16 16 17 17 16 16 15 15 15 15 15 14 14
12 8 3 2 0 2 2 1 5 1 5 5 8 3 2 1 1 4 23 21 24 23 22 19 16 14 12 12 13 13 13 13 14 14 15 15 16 16 16 15 15 15 14 13 13 13 13 12 13
9 5 3 2 1 1 3 4 4 2 5 7 3 5 4 4 2 16 21 24 26 24 21 18 16 14 12 12 13 13 14 14 14 14 14 14 15 15 15 14 14 13 12 11 10 10 10 10 9
7 3 3 2 2 0 3 6 1 6 4 3 4 4 3 1 11 12 22 24 25 23 21 18 15 14 12 12 13 13 13 13 13 13 13 13 13 14 13 13 12 11 10 9 8 8 8 7 6
3 2 2 1 3 2 3 5 4 7 2 3 2 3 3 9 8 16 18 22 23 24 21 18 16 14 12 11 12 12 12 12 13 12 12 13 13 13 12 12 11 9 8 7 6 5 5 5 5
1 1 1 1 3 4 6 4 5 4 3 3 4 6 5 7 12 16 18 22 22 22 21 18 16 14 13 12 11 11 11 11 12 12 12 12 12 12 11 10 9 8 7 6 4 4 4 4 5
1 0 2 2 3 3 1 3 8 5 1 2 6 6 4 13 15 15 19 21 21 21 19 18 16 15 14 12 11 11 10 10 10 10 10 10 10 10 10 9 8 7 7 5 4 3 2 3 5
3 1 3 3 0 4 2 5 5 4 4 5 7 4 6 18 20 19 21 21 21 22 20 18 17 16 15 14 12 11 10 10 9 9 9 9 9 9 8 8 7 6 6 4 3 2 0 2 3
4 3 2 2 2 6 3 6 5 6 5 4 5 2 5 20 23 25 24 23 23 23 21 20 19 17 16 15 13 12 11 10 9 9 9 8 8 8 7 6 6 5 4 3 2 2 3 4 5
4 4 3 2 2 5 7 4 5 6 8 7 6 6 11 21 24 26 26 26 25 24 23 21 20 19 18 17 15 13 12 11 10 9 8 8 7 6 6 6 6 4 3 3 4 5 7 7 7
5 8 4 3 5 2 2 3 5 6 8 9 13 14 20 24 25 25 25 24 23 22 23 22 21 20 19 18 16 14 13 12 10 9 8 8 6 5 5 4 5 5 5 4 5 6 7 8 8
5 6 4 2 4 1 3 1 4 10 6 7 11 16 25 28 26 25 25 24 23 23 21 21 21 21 19 18 16 15 13 11 10 8 8 7 6 6 6 6 7 6 6 8 9 9 10 11 12
5 3 4 5 6 8 8 9 8 13 10 5 13 19 28 30 26 24 23 23 22 21 19 20 20 19 19 18 16 14 12 10 8 8 8 7 7 7 6 7 9 8 8 8 10 12 13 14 16
3 4 3 6 5 6 6 2 3 10 12 12 12 20 28 32 30 27 28 26 25 22 20 18 17 18 18 17 16 13 12 10 8 9 7 6 7 7 6 7 10 11 11 10 11 12 14 16 17
1 3 3 7 5 6 8 4 7 6 7 13 18 20 24 33 29 31 29 28 29 27 21 18 17 17 18 18 17 16 15 12 10 10 10 9 8 9 9 11 11 12 12 13 13 14 16 17 18
2 1 8 6 5 2 9 16 11 8 7 10 16 18 25 30 31 31 31 30 31 29 26 23 21 20 20 19 18 18 18 16 14 13 14 13 12 14 14 15 15 17 14 14 14 17 19 17 16
2 5 4 4 1 2 8 8 7 5 9 10 18 23 25 28 30 30 31 33 32 30 30 29 27 26 24 22 20 19 19 19 18 17 17 16 16 17 18 16 17 19 18 18 16 18 19 16 16
3 3 3 6 3 2 3 10 13 13 9 15 17 25 26 27 34 31 33 34 34 33 30 31 30 30 27 26 24 23 23 20 19 20 20 22 19 14 15 18 16 14 14 14 17 15 14 17 16
2 4 9 8 9 7 14 12 13 13 13 17 17 23 28 32 37 34 36 36 34 35 34 33 33 34 33 31 30 27 25 22 20 18 11 11 15 15 17 17 14 9 8 10 10 11 14 15 14
5 7 11 9 6 5 11 15 15 13 11 13 20 23 30 37 32 39 40 39 38 38 37 35 36 37 37 32 33 32 28 24 21 18 15 14 15 16 13 12 9 8 8 10 11 14 14 12 12
7 11 7 9 5 10 12 13 10 5 8 12 17 21 23 32 36 37 41 40 36 37 38 37 36 36 37 34 35 33 28 24 22 20 19 19 16 13 10 6 6 9 8 7 7 8 6 5 7
10 9 11 9 4 6 2 8 10 9 8 10 15 17 21 26 29 32 38 39 36 35 33 30 30 33 36 35 35 33 32 29 25 22 17 15 11 10 9 7 6 6 4 2 0 2 3 3 3
5 2 6 7 8 7 12 7 9 4 7 10 11 16 18 21 24 26 35 34 33 32 29 27 28 31 33 32 31 30 30 28 23 21 15 13 10 9 6 4 4 3 3 0 2 3 3 5 5
4 10 6 2 4 11 16 12 12 12 11 10 9 13 16 17 22 27 28 32 31 28 27 27 29 32 32 30 31 30 30 27 25 22 18 15 12 9 8 6 5 2 1 2 3 5 6 6 6
7 7 6 6 8 14 8 8 12 7 13 13 13 16 17 19 21 26 31 35 32 30 28 27 28 30 28 26 27 27 26 25 23 21 19 17 13 14 12 8 5 3 0 3 4 5 6 6 7
12 6 6 11 10 13 1 9 10 11 15 13 14 16 16 18 22 26 31 30 32 33 30 30 31 31 28 24 25 23 21 20 21 19 17 17 16 15 12 9 6 3 0 3 5 6 7 7 8
3 5 10 12 15 11 12 16 12 12 14 13 17 21 20 21 25 29 23 23 34 37 36 34 33 30 27 25 24 21 21 19 20 19 17 18 17 16 14 11 6 3 0 3 6 8 9 9 10
7 10 4 5 9 18 12 11 10 11 17 19 23 27 30 24 19 19 20 26 39 39 36 32 29 25 24 24 22 22 23 23 23 21 21 19 18 17 14 10 6 3 1 5 7 9 10 11 12
10 3 5 4 5 9 16 11 5 11 15 18 24 29 30 28 17 16 18 30 33 32 35 33 31 28 27 26 27 28 27 26 22 21 21 22 22 18 13 9 6 4 4 5 7 9 12 14 15
9 7 7 4 6 5 5 8 9 12 17 22 29 32 30 25 14 11 19 25 26 30 37 33 32 31 30 30 29 30 30 27 22 22 21 21 19 16 11 8 7 7 8 7 9 10 13 15 18

GFSSGP_850_spd_288.txt.gz
Wind_Speed
15 14 6 3 7 7 10 8 3 6 5 5 7 2 3 7 7 4 14 15 20 20 18 16 13 12 11 12 12 12 12 12 13 14 15 15 15 16 16 16 16 16 16 16 15 16 15 15 15
13 10 4 6 6 2 8 7 6 9 8 6 10 3 3 5 5 7 18 17 21 20 19 16 14 12 11 11 12 13 13 14 15 15 16 15 16 16 16 16 15 15 14 14 13 13 13 12 13
11 6 7 6 4 3 6 5 8 8 8 7 5 1 3 4 3 16 12 22 23 20 18 17 15 13 12 12 12 13 14 15 15 15 16 15 15 15 15 15 14 13 12 11 10 10 10 10 9
6 4 6 8 1 6 6 5 3 10 7 3 2 6 5 6 9 10 19 23 22 19 17 17 15 14 13 12 13 14 14 14 14 15 15 15 15 14 14 13 12 11 10 9 8 8 7 7 7
5 6 7 8 4 1 3 3 1 7 4 3 2 4 4 6 11 19 21 22 22 20 17 17 16 15 13 13 12 13 13 13 13 13 14 14 14 13 12 11 10 9 8 6 6 6 5 4 5
8 5 7 10 6 1 3 2 4 8 5 3 4 4 8 9 15 18 19 20 20 20 17 17 17 15 13 12 12 12 12 12 12 12 12 12 12 12 11 9 9 7 6 4 3 4 4 3 4
12 7 4 5 2 6 1 4 10 10 3 2 2 9 8 12 15 18 19 19 20 19 17 17 16 16 14 13 12 11 12 12 12 11 11 11 11 10 9 8 7 6 4 3 1 1 2 3 4
9 7 6 6 3 3 2 9 7 10 2 2 4 2 9 15 17 17 19 19 19 19 17 16 16 15 14 13 12 11 11 11 11 11 11 10 9 8 7 6 6 5 5 3 2 2 2 4 5
7 10 9 5 5 4 4 9 9 5 5 7 6 1 7 19 19 18 20 19 19 19 18 17 16 15 14 13 14 12 11 11 10 10 9 9 7 6 6 6 6 5 5 4 4 4 5 6 6
12 11 8 3 2 6 4 6 14 9 8 10 8 6 14 19 20 22 22 22 21 20 20 18 18 17 16 13 13 12 12 11 10 10 10 8 8 8 9 8 7 7 6 6 7 8 9 9 7
16 14 4 6 5 6 6 5 8 13 11 11 12 12 18 19 21 21 20 20 21 20 19 19 19 18 16 14 13 12 11 10 11 11 10 9 8 7 7 6 6 7 8 5 9 9 8 9 8
15 18 8 5 4 8 6 3 6 12 10 2 7 17 22 23 23 22 20 19 19 19 19 19 19 20 18 15 14 13 12 12 10 11 11 10 9 8 7 7 8 8 7 9 8 9 11 11 11
17 18 10 12 10 11 11 9 8 11 10 7 7 19 22 23 22 20 19 19 19 20 20 20 19 20 20 20 14 14 14 13 11 12 11 10 9 9 8 9 8 9 9 8 9 10 11 12 13
13 21 15 13 15 13 13 9 6 7 11 9 12 18 21 23 24 22 22 22 21 20 20 19 20 19 19 18 17 15 14 12 12 11 11 11 10 10 8 8 8 9 10 9 10 10 11 12 13
6 11 14 19 20 17 12 14 10 11 9 11 13 15 19 22 24 26 24 24 24 22 20 20 19 19 20 20 20 18 14 13 11 11 12 11 11 11 11 9 9 9 9 11 11 11 12 14 13
11 10 14 17 17 15 11 16 16 11 10 12 12 14 18 22 28 26 25 24 24 23 25 22 20 19 20 21 20 18 15 13 12 11 12 13 13 14 13 11 10 10 10 11 11 11 12 13 14
8 13 12 15 9 14 12 18 17 7 11 18 16 16 18 21 25 27 28 27 27 30 28 27 24 22 21 21 21 20 18 17 13 12 12 15 16 16 16 12 11 16 14 12 11 11 12 11 11
9 9 8 11 7 10 18 17 19 11 10 14 20 21 22 23 27 30 29 28 27 29 31 31 29 27 25 23 23 21 18 17 16 16 14 17 15 17 16 13 17 15 12 9 8 11 9 11 11
8 10 12 9 5 11 14 15 16 19 16 17 19 22 25 28 29 27 27 28 27 29 31 33 33 32 30 28 25 22 20 21 18 20 18 15 12 11 14 13 13 11 6 6 7 7 9 9 11
9 12 13 10 7 7 14 19 20 18 19 21 24 25 26 28 31 29 28 27 31 32 32 32 34 34 35 31 28 21 21 18 18 18 17 14 12 12 12 10 8 7 7 7 8 8 6 7 7
11 13 13 12 12 13 17 19 20 18 27 22 18 21 24 28 31 33 31 29 26 29 34 33 33 33 34 33 28 30 21 27 23 20 16 16 13 13 13 11 10 9 7 7 9 8 5 4 5
12 7 9 12 11 10 2 13 13 13 16 18 22 19 21 24 28 32 31 30 29 27 25 30 31 32 34 35 29 34 32 21 16 16 21 19 16 16 13 13 11 9 9 9 7 5 4 2 3
10 3 8 11 13 15 16 11 14 16 13 16 21 23 17 17 19 26 32 33 28 24 25 26 29 31 31 33 32 33 24 17 19 19 22 20 15 14 14 12 10 9 7 7 5 4 3 2 1
14 13 16 16 14 15 19 18 17 13 15 13 18 18 19 15 15 16 21 26 25 23 23 23 27 29 29 31 35 34 27 27 27 25 21 19 17 16 13 10 9 8 6 5 3 2 2 2 1
7 12 12 14 13 14 14 15 10 10 11 11 12 15 12 8 11 12 16 21 21 22 22 22 25 29 30 31 33 32 32 34 26 24 22 20 17 14 14 12 10 8 5 3 2 2 2 2 1
14 10 10 20 16 16 10 8 6 2 8 12 23 23 22 22 21 17 15 14 18 21 21 22 27 30 31 31 31 32 33 28 27 24 23 20 17 15 16 14 12 8 6 3 1 1 2 3 4
7 8 13 12 18 18 18 24 18 6 12 17 21 25 27 29 29 24 19 16 19 22 23 26 29 31 32 30 32 32 30 30 28 24 21 21 21 19 19 16 12 9 6 3 1 1 4 7 7
10 10 8 9 16 22 15 17 10 13 12 14 19 25 29 31 32 27 19 15 17 25 23 21 27 34 36 36 34 31 30 29 26 23 25 24 22 21 21 18 14 9 5 3 1 4 6 8 6
9 3 6 7 9 14 17 15 9 11 16 19 25 32 34 34 33 30 21 10 12 21 20 24 23 31 35 31 30 29 30 28 27 28 29 26 24 23 20 16 12 9 7 4 3 3 6 6 7
8 9 10 5 9 9 10 15 9 8 19 30 35 36 35 34 33 31 24 21 18 19 20 26 28 23 25 25 26 27 30 32 31 29 26 25 24 22 19 15 12 8 6 6 4 3 5 7 9

GFSSGP_850_spd_291.txt.gz
Wind_Speed
16 17 9 9 8 5 4 15 16 5 9 9 11 7 14 16 15 5 19 15 19 18 17 15 14 13 13 12 12 11 11 12 12 14 15 15 15 16 16 16 16 15 15 15 15 15 15 15 14
11 11 12 13 5 6 8 15 16 15 10 5 9 1 8 14 12 15 17 18 19 19 17 15 14 13 14 13 13 13 13 13 14 15 15 15 15 16 16 15 15 14 13 13 13 13 13 12 12
13 10 16 11 7 7 10 15 18 13 9 7 8 2 7 7 5 16 17 22 19 18 16 15 14 14 14 13 13 13 14 15 15 15 15 15 15 15 15 14 14 13 11 10 10 9 9 9 9
8 15 14 11 2 11 8 25 18 14 9 3 6 12 9 7 11 9 22 22 19 17 16 16 14 14 14 14 13 13 14 15 15 15 15 15 14 14 13 13 12 11 10 9 8 7 7 6 6
12 15 12 13 12 5 5 9 6 15 8 8 4 14 8 6 11 19 23 21 20 18 16 16 15 14 13 14 13 13 14 14 14 14 14 13 13 13 12 11 9 8 8 7 6 5 5 5 6
16 16 12 13 13 8 2 2 3 11 9 7 3 10 11 13 18 20 20 20 19 18 17 16 16 14 14 14 14 13 13 13 14 13 13 12 12 11 10 9 7 6 5 4 4 3 4 4 4
17 13 16 19 4 1 4 1 8 6 6 11 1 9 13 15 16 20 20 20 19 17 18 17 16 15 15 15 14 13 12 12 12 12 12 11 10 9 8 7 5 4 3 1 1 2 2 3 4
19 13 20 7 11 2 8 5 7 2 15 5 1 6 13 18 18 19 19 19 18 17 15 17 16 15 15 15 15 13 12 11 11 11 11 10 8 7 6 6 5 3 3 2 2 3 4 5 6
14 13 15 15 10 2 6 10 4 2 6 5 4 6 13 20 20 19 19 19 19 18 15 16 15 16 15 14 15 14 13 12 11 10 10 9 7 4 5 5 5 6 6 6 6 6 7 8 9
17 13 21 3 6 9 4 11 18 8 8 8 9 9 15 20 21 21 21 21 20 20 18 17 16 16 15 13 14 13 13 12 11 9 9 9 5 8 8 11 8 8 8 7 7 10 11 8 9
19 18 22 6 3 6 11 10 10 14 15 13 18 15 17 20 21 20 20 20 21 20 19 19 19 18 17 13 12 11 10 10 10 11 10 8 8 8 8 7 8 10 8 10 12 10 11 10 10
20 21 27 6 4 10 11 6 6 13 14 6 9 20 20 20 21 21 20 19 20 20 19 19 19 18 17 14 12 12 12 11 10 11 12 11 11 9 8 8 7 9 8 8 9 8 10 12 11
21 16 21 15 10 14 11 12 11 12 15 3 7 16 19 20 20 19 19 18 18 19 20 20 19 19 19 18 14 13 13 13 11 11 12 11 9 9 8 8 9 8 8 9 9 10 11 11 12
20 15 26 17 18 18 15 15 9 17 15 7 10 19 20 21 21 20 21 20 20 20 21 21 20 20 18 18 15 14 14 13 13 12 12 14 11 10 9 8 7 7 8 9 9 11 12 12 13
12 15 16 21 18 17 15 16 15 18 7 12 12 16 20 21 22 23 24 23 24 23 21 22 22 21 20 19 18 15 14 13 12 12 13 13 13 12 10 8 8 7 8 10 11 12 13 14 15
14 16 17 21 25 25 19 15 20 20 14 15 17 18 20 22 24 25 24 24 24 23 24 23 21 22 22 20 19 16 15 14 13 12 12 14 13 13 11 9 8 9 10 11 12 14 14 14 16
13 14 19 17 20 21 20 19 20 21 24 17 18 17 18 21 23 25 26 26 27 27 26 26 24 23 22 23 18 18 17 17 15 13 12 13 13 12 12 10 10 13 10 11 12 12 13 13 14
11 16 13 11 13 10 15 18 19 25 17 15 21 22 20 23 24 25 29 29 28 28 29 30 27 26 26 21 21 18 18 17 16 15 14 14 11 11 12 11 13 13 8 9 10 10 11 12 14
12 13 12 12 5 1 13 16 20 28 31 19 20 25 25 24 23 26 29 29 30 32 32 35 33 31 30 24 23 22 22 18 17 15 14 15 12 12 12 11 11 8 8 10 9 7 10 10 12
12 13 15 13 12 8 13 18 18 20 22 26 23 25 28 26 27 27 29 32 33 35 39 38 38 38 36 28 25 23 22 19 18 17 16 14 13 11 11 9 9 10 10 10 10 8 7 7 8
13 13 13 14 11 12 15 18 19 20 24 28 31 31 30 31 29 29 30 34 34 35 36 34 38 39 40 33 27 25 22 22 20 19 19 19 18 16 11 10 11 11 4 5 5 4 5 3 7
13 10 8 10 12 13 13 11 13 15 20 22 28 32 26 27 30 29 30 33 38 36 33 31 33 38 39 38 28 30 28 27 24 21 17 21 20 15 14 13 12 10 6 8 4 4 1 4 4
12 11 9 13 13 15 17 11 14 15 15 16 13 18 25 30 28 26 27 29 30 29 29 32 33 35 36 38 35 32 31 27 20 20 26 22 20 18 15 14 13 12 7 10 8 6 5 2 1
11 12 16 17 16 16 19 17 16 16 17 7 10 11 15 20 19 20 17 19 29 30 27 27 31 36 36 40 38 38 36 31 26 26 28 22 21 20 19 16 15 14 14 9 8 7 6 6 3
12 11 11 14 14 14 17 16 13 7 11 22 21 27 29 30 31 30 28 19 16 20 21 26 26 30 33 36 35 43 43 34 35 35 24 22 20 19 21 18 17 15 14 10 8 7 5 4 3
13 9 11 17 14 17 21 13 7 5 23 24 24 25 28 31 32 32 31 28 25 16 21 26 26 26 27 29 30 35 32 31 31 31 24 24 23 21 18 19 16 15 12 10 8 5 4 3 2
8 9 12 12 16 16 17 22 23 19 22 27 28 31 33 32 31 32 30 32 29 28 14 17 20 22 23 26 29 30 29 34 28 27 31 29 23 24 19 18 16 14 12 9 9 7 5 4 5
6 12 9 9 18 19 16 16 6 16 17 19 24 31 31 31 30 30 29 28 27 28 9 8 18 21 24 24 27 33 35 32 29 30 31 25 26 24 22 21 18 14 12 10 11 4 5 3 3
11 5 7 8 8 13 16 10 12 14 14 18 25 30 29 30 33 31 29 29 27 26 21 18 16 23 23 29 32 34 32 30 28 29 26 29 30 25 21 19 18 16 14 12 12 13 5 3 1
10 11 9 7 9 14 13 16 7 2 16 29 30 32 30 31 32 32 32 31 35 30 27 19 19 23 25 28 28 25 28 34 36 29 31 32 26 21 20 19 19 18 14 11 9 9 6 4 1